Location: Dennis Manor
(64.8292°N, 147.5397°W)
Time: 09:26:52
(UTC+00:00)

Envisat - Pass Details

Date: 03 November 2020
Orbit: 764 x 766 km, 98.1° (Epoch: 05 December)

Event Time Altitude Azimuth Distance (km) Brightness Sun altitude
Rises 03:59:16 0° 204° (SSW) 3,231 6.6 -16.4°
Reaches altitude 10° 04:01:58 10° 218° (SW) 2,309 6.0 -16.7°
Maximum altitude 04:06:07 25° 273° (W) 1,525 5.4 -17.2°
Drops below altitude 10° 04:10:18 10° 328° (NNW) 2,320 5.9 -17.6°
Sets 04:13:02 0° 342° (NNW) 3,250 6.5 -17.9°
